sat.trackr.live / text

‹ back to catalog

STARLINK-1994

NORAD 47589 · 2021-009AT

PAYLOAD ACTIVE UNKNOWN

§ Identity

Operator
Country
US
Launch date
2021-02-04
Launch site
AFETR
Launch vehicle
Mass (kg)
RCS (m²)

Purposes: comms

External: N2YO · Heavens-Above · Gunter

§ Orbital elements

Epoch: 2026-05-25T00:54:54.036288Z

Period
91.64 min
Inclination
53.0421°
Eccentricity
0.0002187
Mean motion
15.71322505 rev/d
Perigee alt
353.6 km
Apogee alt
356.6 km
Semi-major
6,733.3 km
B*
7.7005e-4
RAAN
347.5672°
Arg perigee
51.9828°
Mean anomaly
308.1386°
Rev number
29,302

§ Raw data

STARLINK-19941 47589U 21009AT  26145.03812542  .00100417  00000+0  77005-3 0  99922 47589  53.0421 347.5672 0002187  51.9828 308.1386 15.71322505293021

JSON: /api/v1/satellites/47589 · /tle

For live sub-satellite position, see the globe view (requires WebGL).

§ Visibility from observer

Set your observer location to see the next 7 days of passes ≥ 10°. The values pass through the URL so the page stays shareable.

No JS? Fill the form by hand. The geolocation button needs JavaScript.